MBS International Airport
KMBS : now visible

Airfield :











YOU CAN JOIN US ON...

 
LOGIN :

Register | Disclaimer

   EN    FR    IT 

 









Legend :    VFR   Marginal VFR   IFR   Intensive IFR   Very Intensive IFR
Visi :
Ceiling :
>= 8 km
>= 3000ft
5 to 8 km
1000 to 3000 ft
1500m to 5 km
500 to 1000 ft
800 to 1500m
200 to 500 ft
< 800m
< 200 ft
Symbols :   Thunderstorms  Fog  Heavy snow  Heavy precipitations  Wind > 20 kt






- Airport Elevation : 668 ft
- IATA code : MBS


KMBS - MBS International

CURRENT METAR :
  • 291453Z 04007KT 10SM OVC024 M01/M05 A3024 RMK AO2 SLP248 T10111050 51015

EXPIRED METARs :
  • 291353Z 00000KT 10SM OVC022 M01/M06 A3024 RMK AO2 SLP248 T10111056
  • 291253Z 07003KT 10SM OVC022 M02/M06 A3022 RMK AO2 SLP242 T10171056

TAF KMBS
Valid from the 29 at 15:00 until the 30 at 12:00 UTC


291439Z 2915/3012 06004KT P6SM BKN022 OVC035



MET'MAP, your aeronautical weather chart ! - Copyright ORBIFLY December 2007 - Disclaimer

ORBIFLY MET'MAP TEAM :

Programming & Development : Alexandra Zaïnal
Concept & original design : Baudouin d'Aumeries
Assistance for programming : Marc-Olivier Méhu
Technical & hardware support : Manuel Goepfert

Contact : metmap@orbifly.com




SOURCES & CREDITS :

   NOAA       Earth
Advisory